Tracking 30918 objects as of 2-Jul-2025
HD Live streaming from Space Station
objects crossing your sky now

STARLINK-2631

Track STARLINK-2631 now!
10-day predictions
STARLINK-2631 is classified as:


NORAD ID: 48366
Int'l Code: 2021-038P
Perigee: 351.3 km
Apogee: 352.6 km
Inclination: 53.1 °
Period: 91.4 minutes
Semi major axis: 6722 km
RCS: Unknown
Launch date: May 4, 2021
Source: United States (US)
Launch site: AIR FORCE EASTERN TEST RANGE (AFETR)
Your satellite tracking list
ION SCV-005
Track 1 satellite(s)




NASA's NSSDC Master Catalog

Two Line Element Set (TLE):
1 48366U 21038P   25183.25002315  .01366668  00000-0  80265-2 0  9997
2 48366  53.0500  27.9873 0000938  73.3992 338.9936 15.74938726230111
Source of the keplerian elements: AFSPC